User: anonymous   Login
Location: Newark
(13.8625°N, 100.5144°E)
Time: 15:26:51
(UTC+00:00)
Language:

NOAA 15 - Orbit

View from above orbital plane
View from above orbital plane
View from above satellite
View from above satellite

Ground track
Ground track

The orbit data is extracted from the following two-line orbital elements,

1 25338U 98030A   21215.30610760  .00000087  00000-0  54714-4 0  9995
2 25338  98.6795 243.4053 0011183 139.8428 220.3581 14.26049776207924
Epoch (UTC): 03 August 2021 07:20:47
Eccentricity: 0.0011183
inclination: 98.6795°
perigee height: 797 km
apogee height: 813 km
right ascension of ascending node: 243.4053°
argument of perigee: 139.8428°
revolutions per day: 14.26049776
mean anomaly at epoch: 220.3581°
orbit number at epoch: 20792

The dashed part of the orbit path shows where the satellite is in the earth's shadow,  

DLR